Главная страница
METAR-TAF:

METAR-TAF

Аэропорты :

Ljungbyhed, Швеция

широта: 56-04N, долгота: 013-12E, высота над уровнем моря: 43 м

Текущие метеонаблюдения

Эта сводка был подготовлена 30 минут назад, в 19:50 UTC
Ветер 3 Узел от восточный
Температура 18°C
Влажность 77%
Давление 1012 hPa

METAR: ESTL 121950Z AUTO 10003KT //// R29L///// FEW083/// 18/14 Q1012

Время: 22:20 (20:20 UTC)


TAF: отсутствует

Метеонаблюдения и прогнозы для более 4000 аэропортов (сводки METAR и TAF).

Имеющиеся станции представлены на карте желтыми и красными точками.

Чтобы увидеть название станции, наведите на нее мышь.

Затем щелкните, чтобы увидеть метеонаблюдения и метеопрогнозы.

Управление картой: чтобы увеличить масштаб, щелкните зеленые кнопки с черным крестиком; чтобы уменьшить масштаб, щелкните зеленую кнопку с тире; для просмотра соседних карт щелкайте зеленые стрелки.


METAR-TAF: